KAL2174 RJBE-RKSI

Flight info

Callsign KAL2174
Flight time 1h 29m
Altitude 36000
Route MUKRI1 SOUJA Y324 STAGE Y38 SAPRA Y685 GUKDO GUKDO2C
Aircraft A321/M-SDE3FGHIRWY/LB1

Departure

Time 2026-04-25 00:58
Airport Kobe Airport (RJBE)

Arrival

Time 2026-04-25 02:27
Airport Incheon International Airport (RKSI)
Time Latitude Longitude Altitude Speed Heading
2026-04-25 00:30 34.63610 135.22863 32 ft 0 kts 354°
2026-04-25 00:47 34.63597 135.22865 31 ft 4 kts 354°
2026-04-25 00:48 34.63570 135.22868 30 ft 4 kts 355°
2026-04-25 00:48 34.63543 135.22869 31 ft 4 kts
2026-04-25 00:48 34.63516 135.22866 30 ft 4 kts 12°
2026-04-25 00:48 34.63493 135.22857 30 ft 2 kts 25°
2026-04-25 00:49 34.63488 135.22854 30 ft 0 kts 25°
2026-04-25 00:52 34.63490 135.22857 31 ft 2 kts 35°
2026-04-25 00:52 34.63483 135.22926 32 ft 14 kts 98°
2026-04-25 00:52 34.63488 135.23041 31 ft 13 kts 86°
2026-04-25 00:53 34.63496 135.23149 31 ft 12 kts 84°
2026-04-25 00:53 34.63504 135.23249 31 ft 11 kts 85°
2026-04-25 00:53 34.63512 135.23342 31 ft 11 kts 84°
2026-04-25 00:53 34.63519 135.23429 31 ft 12 kts 84°
2026-04-25 00:54 34.63528 135.23541 31 ft 14 kts 85°
2026-04-25 00:54 34.63534 135.23651 31 ft 13 kts 92°
2026-04-25 00:54 34.63481 135.23717 30 ft 12 kts 173°
2026-04-25 00:54 34.63398 135.23702 27 ft 13 kts 225°
2026-04-25 00:55 34.63366 135.23613 26 ft 5 kts 263°
2026-04-25 00:55 34.63366 135.23612 26 ft 0 kts 263°
2026-04-25 00:57 34.63361 135.23537 25 ft 35 kts 265°
2026-04-25 00:57 34.63312 135.22934 28 ft 106 kts 264°
2026-04-25 00:57 34.63223 135.21807 28 ft 160 kts 264°
2026-04-25 00:58 34.63086 135.20357 362 ft 175 kts 264°
2026-04-25 00:58 34.62967 135.18888 1014 ft 174 kts 264°
2026-04-25 00:58 34.62868 135.17422 1555 ft 177 kts 265°
2026-04-25 00:58 34.62737 135.15880 1875 ft 190 kts 265°
2026-04-25 00:59 34.62569 135.14208 2084 ft 207 kts 263°
2026-04-25 00:59 34.62373 135.12440 2396 ft 215 kts 261°
2026-04-25 00:59 34.62159 135.10600 2720 ft 224 kts 260°
2026-04-25 00:59 34.61914 135.08730 3044 ft 232 kts 258°
2026-04-25 01:00 34.61624 135.06724 3245 ft 252 kts 258°
2026-04-25 01:00 34.61361 135.04505 3455 ft 278 kts 262°
2026-04-25 01:00 34.61138 135.02141 4224 ft 274 kts 262°
2026-04-25 01:00 34.60866 134.99853 5086 ft 277 kts 255°
2026-04-25 01:01 34.60137 134.97687 5790 ft 279 kts 241°
2026-04-25 01:01 34.59158 134.95627 6457 ft 285 kts 239°
2026-04-25 01:01 34.58125 134.93555 7089 ft 290 kts 238°
2026-04-25 01:01 34.57080 134.91443 7752 ft 293 kts 239°
2026-04-25 01:02 34.56027 134.89320 8467 ft 294 kts 239°
2026-04-25 01:02 34.54964 134.87189 9183 ft 296 kts 239°
2026-04-25 01:02 34.53935 134.85012 9855 ft 299 kts 245°
2026-04-25 01:02 34.53256 134.82628 10486 ft 301 kts 259°
2026-04-25 01:03 34.52806 134.80071 10697 ft 320 kts 258°
2026-04-25 01:03 34.52308 134.77348 10825 ft 341 kts 258°
2026-04-25 01:03 34.51765 134.74464 10995 ft 359 kts 257°
2026-04-25 01:03 34.51193 134.71489 11483 ft 365 kts 257°
2026-04-25 01:04 34.50610 134.68486 12107 ft 367 kts 257°
2026-04-25 01:04 34.50024 134.65471 12769 ft 368 kts 257°
2026-04-25 01:04 34.49446 134.62486 13447 ft 368 kts 257°
2026-04-25 01:04 34.48864 134.59462 14111 ft 369 kts 257°
2026-04-25 01:05 34.48280 134.56428 14712 ft 370 kts 257°
2026-04-25 01:05 34.47698 134.53391 15346 ft 369 kts 257°
2026-04-25 01:05 34.47120 134.50371 15976 ft 368 kts 257°
2026-04-25 01:05 34.46540 134.47352 16612 ft 367 kts 257°
2026-04-25 01:06 34.45959 134.44346 17260 ft 366 kts 257°
2026-04-25 01:06 34.45377 134.41347 17919 ft 366 kts 257°
2026-04-25 01:06 34.44791 134.38335 18511 ft 367 kts 257°
2026-04-25 01:06 34.44206 134.35334 19092 ft 365 kts 257°
2026-04-25 01:07 34.43642 134.32339 19574 ft 365 kts 260°
2026-04-25 01:07 34.43448 134.29272 19995 ft 367 kts 270°
2026-04-25 01:07 34.43794 134.26198 20410 ft 372 kts 281°
2026-04-25 01:07 34.44672 134.23231 20772 ft 378 kts 290°
2026-04-25 01:08 34.45754 134.20320 21189 ft 379 kts 290°
2026-04-25 01:08 34.46838 134.17406 21605 ft 380 kts 290°
2026-04-25 01:08 34.47926 134.14474 22023 ft 382 kts 290°
2026-04-25 01:08 34.49012 134.11528 22448 ft 384 kts 290°
2026-04-25 01:09 34.50101 134.08568 22851 ft 385 kts 290°
2026-04-25 01:09 34.51192 134.05596 23254 ft 387 kts 289°
2026-04-25 01:09 34.52288 134.02607 23658 ft 389 kts 289°
2026-04-25 01:09 34.53390 133.99606 23992 ft 390 kts 289°
2026-04-25 01:10 34.54494 133.96593 24319 ft 391 kts 289°
2026-04-25 01:10 34.55596 133.93576 24645 ft 392 kts 289°
2026-04-25 01:10 34.56699 133.90552 24964 ft 393 kts 289°
2026-04-25 01:10 34.57806 133.87518 25305 ft 394 kts 289°
2026-04-25 01:11 34.58917 133.84477 25641 ft 394 kts 288°
2026-04-25 01:11 34.60031 133.81424 25970 ft 395 kts 288°
2026-04-25 01:11 34.61129 133.78401 26287 ft 397 kts 288°
2026-04-25 01:11 34.62370 133.75386 26585 ft 404 kts 295°
2026-04-25 01:12 34.64078 133.72628 26889 ft 414 kts 305°
2026-04-25 01:12 34.66195 133.70201 27174 ft 421 kts 310°
2026-04-25 01:12 34.68393 133.67829 27436 ft 423 kts 310°
2026-04-25 01:12 34.70598 133.65456 27720 ft 424 kts 310°
2026-04-25 01:13 34.72804 133.63076 28036 ft 425 kts 310°
2026-04-25 01:13 34.75020 133.60683 28294 ft 427 kts 309°
2026-04-25 01:13 34.77248 133.58274 28533 ft 428 kts 309°
2026-04-25 01:13 34.79483 133.55855 28802 ft 430 kts 309°
2026-04-25 01:14 34.81717 133.53427 29088 ft 431 kts 309°
2026-04-25 01:14 34.83947 133.50995 29424 ft 430 kts 309°
2026-04-25 01:14 34.86168 133.48576 29865 ft 427 kts 309°
2026-04-25 01:14 34.88376 133.46173 30329 ft 423 kts 309°
2026-04-25 01:15 34.90564 133.43792 30690 ft 420 kts 308°
2026-04-25 01:15 34.92710 133.41454 31034 ft 418 kts 308°
2026-04-25 01:15 34.94870 133.39099 31385 ft 415 kts 307°
2026-04-25 01:15 34.97017 133.36756 31726 ft 413 kts 307°
2026-04-25 01:16 34.99154 133.34424 32042 ft 412 kts 306°
2026-04-25 01:16 35.01284 133.32097 32344 ft 410 kts 306°
2026-04-25 01:16 35.03406 133.29780 32655 ft 408 kts 305°
2026-04-25 01:16 35.05520 133.27468 32913 ft 407 kts 305°
2026-04-25 01:17 35.07621 133.25165 33216 ft 405 kts 304°
2026-04-25 01:17 35.09008 133.23644 33407 ft 404 kts 304°
2026-04-25 01:17 35.11803 133.20575 33839 ft 403 kts 304°
2026-04-25 01:17 35.13886 133.18282 34136 ft 402 kts 303°
2026-04-25 01:18 35.15259 133.16769 34319 ft 401 kts 303°
2026-04-25 01:18 35.17336 133.14483 34574 ft 400 kts 303°
2026-04-25 01:18 35.19403 133.12209 34808 ft 400 kts 303°
2026-04-25 01:18 35.21468 133.09934 35035 ft 399 kts 303°
2026-04-25 01:19 35.23532 133.07661 35267 ft 399 kts 303°
2026-04-25 01:19 35.25599 133.05386 35480 ft 399 kts 303°
2026-04-25 01:19 35.28332 133.02375 35762 ft 398 kts 303°
2026-04-25 01:19 35.29721 133.00840 35902 ft 398 kts 303°
2026-04-25 01:20 35.31755 132.98589 36040 ft 399 kts 303°
2026-04-25 01:20 35.33816 132.96308 36175 ft 399 kts 303°
2026-04-25 01:20 35.35873 132.94032 36193 ft 398 kts 303°
2026-04-25 01:21 35.39974 132.89496 36197 ft 397 kts 303°
2026-04-25 01:21 35.44064 132.84962 36195 ft 396 kts 303°
2026-04-25 01:22 35.48146 132.80419 36188 ft 396 kts 303°
2026-04-25 01:22 35.52237 132.75866 36197 ft 396 kts 303°
2026-04-25 01:23 35.56173 132.71215 36206 ft 380 kts 294°
2026-04-25 01:23 35.57582 132.68558 36204 ft 363 kts 284°
2026-04-25 01:23 35.58492 132.65744 36210 ft 349 kts 275°
2026-04-25 01:24 35.59327 132.59969 36242 ft 343 kts 271°
2026-04-25 01:24 35.60078 132.54177 36222 ft 344 kts 271°
2026-04-25 01:25 35.60835 132.48391 36218 ft 345 kts 271°
2026-04-25 01:25 35.61594 132.42562 36215 ft 345 kts 271°
2026-04-25 01:26 35.62354 132.36723 36226 ft 346 kts 271°
2026-04-25 01:26 35.63110 132.30859 36218 ft 348 kts 271°
2026-04-25 01:27 35.63874 132.24980 36218 ft 348 kts 271°
2026-04-25 01:27 35.64625 132.19091 36252 ft 349 kts 271°
2026-04-25 01:28 35.65747 132.10219 36214 ft 351 kts 271°
2026-04-25 01:28 35.66490 132.04315 36191 ft 352 kts 271°
2026-04-25 01:29 35.67238 131.98364 36226 ft 351 kts 271°
2026-04-25 01:29 35.67985 131.92413 36219 ft 352 kts 271°
2026-04-25 01:30 35.68732 131.86456 36225 ft 352 kts 271°
2026-04-25 01:30 35.69475 131.80496 36229 ft 352 kts 271°
2026-04-25 01:31 35.70212 131.74530 36234 ft 353 kts 271°
2026-04-25 01:31 35.70946 131.68541 36217 ft 355 kts 271°
2026-04-25 01:32 35.71684 131.62520 36211 ft 356 kts 271°
2026-04-25 01:32 35.72416 131.56529 36211 ft 357 kts 271°
2026-04-25 01:33 35.73158 131.50472 36215 ft 358 kts 271°
2026-04-25 01:33 35.73896 131.44388 36183 ft 360 kts 271°
2026-04-25 01:34 35.74632 131.38280 36211 ft 360 kts 271°
2026-04-25 01:34 35.75365 131.32179 36239 ft 360 kts 271°
2026-04-25 01:35 35.76096 131.26064 36224 ft 362 kts 271°
2026-04-25 01:35 35.76824 131.19961 36218 ft 363 kts 271°
2026-04-25 01:36 35.77558 131.13807 36218 ft 363 kts 271°
2026-04-25 01:36 35.78286 131.07632 36222 ft 365 kts 271°
2026-04-25 01:37 35.79017 131.01433 36219 ft 366 kts 271°
2026-04-25 01:37 35.79745 130.95224 36220 ft 366 kts 271°
2026-04-25 01:38 35.80467 130.89011 36242 ft 367 kts 272°
2026-04-25 01:38 35.81191 130.82777 36228 ft 368 kts 272°
2026-04-25 01:39 35.81907 130.76522 36204 ft 368 kts 271°
2026-04-25 01:39 35.82620 130.70326 36216 ft 368 kts 272°
2026-04-25 01:40 35.83411 130.64099 36225 ft 368 kts 272°
2026-04-25 01:40 35.84229 130.57870 36224 ft 368 kts 272°
2026-04-25 01:41 35.85035 130.51642 36227 ft 367 kts 272°
2026-04-25 01:41 35.85821 130.45428 36245 ft 367 kts 272°
2026-04-25 01:42 35.86597 130.39184 36228 ft 368 kts 272°
2026-04-25 01:42 35.87377 130.32929 36221 ft 369 kts 272°
2026-04-25 01:43 35.88152 130.26706 36216 ft 370 kts 272°
2026-04-25 01:43 35.88930 130.20424 36224 ft 371 kts 272°
2026-04-25 01:44 35.89705 130.14126 36208 ft 372 kts 272°
2026-04-25 01:44 35.90479 130.07819 36205 ft 372 kts 272°
2026-04-25 01:45 35.91257 130.01518 36242 ft 371 kts 272°
2026-04-25 01:45 35.92020 129.95250 36232 ft 372 kts 272°
2026-04-25 01:46 35.92774 129.88944 36227 ft 372 kts 272°
2026-04-25 01:46 35.93528 129.82628 36226 ft 372 kts 272°
2026-04-25 01:47 35.94293 129.76298 36239 ft 373 kts 272°
2026-04-25 01:47 35.95060 129.69946 36221 ft 374 kts 272°
2026-04-25 01:48 35.95825 129.63576 36221 ft 375 kts 272°
2026-04-25 01:48 35.96573 129.57212 36223 ft 375 kts 272°
2026-04-25 01:49 35.97333 129.50828 36219 ft 378 kts 275°
2026-04-25 01:49 35.99325 129.44689 36205 ft 399 kts 295°
2026-04-25 01:50 36.02581 129.39080 36202 ft 402 kts 296°
2026-04-25 01:50 36.05818 129.33481 36215 ft 403 kts 296°
2026-04-25 01:51 36.09067 129.27829 36191 ft 404 kts 296°
2026-04-25 01:51 36.12329 129.22149 36190 ft 405 kts 296°
2026-04-25 01:52 36.15610 129.16449 36183 ft 406 kts 297°
2026-04-25 01:52 36.18892 129.10737 36192 ft 407 kts 297°
2026-04-25 01:53 36.22147 129.05048 36182 ft 407 kts 297°
2026-04-25 01:53 36.25425 128.99316 36171 ft 407 kts 297°
2026-04-25 01:54 36.28698 128.93578 36172 ft 408 kts 297°
2026-04-25 01:54 36.31970 128.87827 36176 ft 408 kts 297°
2026-04-25 01:55 36.35250 128.82068 36164 ft 409 kts 297°
2026-04-25 01:55 36.38539 128.76284 36160 ft 410 kts 297°
2026-04-25 01:56 36.41833 128.70482 36164 ft 411 kts 297°
2026-04-25 01:56 36.45123 128.64663 36181 ft 412 kts 297°
2026-04-25 01:57 36.50055 128.55937 36176 ft 413 kts 297°
2026-04-25 01:58 36.53362 128.50072 36188 ft 414 kts 298°
2026-04-25 01:58 36.56667 128.44205 36178 ft 414 kts 298°
2026-04-25 01:59 36.59978 128.38316 36170 ft 415 kts 298°
2026-04-25 01:59 36.63229 128.32505 36158 ft 416 kts 298°
2026-04-25 02:00 36.66606 128.26548 36155 ft 417 kts 298°
2026-04-25 02:00 36.68291 128.23602 36054 ft 417 kts 298°
2026-04-25 02:00 36.69974 128.20655 35878 ft 416 kts 298°
2026-04-25 02:00 36.71648 128.17714 35712 ft 416 kts 298°
2026-04-25 02:01 36.73326 128.14761 35399 ft 418 kts 299°
2026-04-25 02:01 36.75010 128.11794 35085 ft 419 kts 299°
2026-04-25 02:01 36.76697 128.08826 34775 ft 420 kts 299°
2026-04-25 02:01 36.78393 128.05847 34373 ft 421 kts 299°
2026-04-25 02:02 36.80071 128.02894 33861 ft 422 kts 300°
2026-04-25 02:02 36.81772 127.99889 33313 ft 424 kts 300°
2026-04-25 02:02 36.83478 127.96868 32776 ft 427 kts 301°
2026-04-25 02:02 36.85194 127.93825 32250 ft 431 kts 301°
2026-04-25 02:03 36.86340 127.91789 31852 ft 433 kts 302°
2026-04-25 02:03 36.88673 127.87645 31079 ft 438 kts 302°
2026-04-25 02:03 36.89835 127.85578 30697 ft 440 kts 302°
2026-04-25 02:03 36.91599 127.82439 30123 ft 443 kts 303°
2026-04-25 02:04 36.93379 127.79271 29456 ft 446 kts 303°
2026-04-25 02:04 36.95166 127.76095 28818 ft 448 kts 303°
2026-04-25 02:04 36.96964 127.72900 28188 ft 450 kts 303°
2026-04-25 02:04 36.98763 127.69698 27570 ft 449 kts 303°
2026-04-25 02:05 37.00549 127.66515 26974 ft 445 kts 303°
2026-04-25 02:05 37.02313 127.63365 26384 ft 440 kts 303°
2026-04-25 02:05 37.04060 127.60240 25809 ft 436 kts 303°
2026-04-25 02:05 37.05791 127.57142 25244 ft 432 kts 303°
2026-04-25 02:06 37.07507 127.54071 24689 ft 428 kts 303°
2026-04-25 02:06 37.09206 127.51026 24142 ft 425 kts 303°
2026-04-25 02:06 37.10888 127.48004 23593 ft 421 kts 303°
2026-04-25 02:06 37.12537 127.45044 22975 ft 418 kts 303°
2026-04-25 02:07 37.14268 127.42143 22354 ft 416 kts 311°
2026-04-25 02:07 37.16510 127.39832 21743 ft 418 kts 327°
2026-04-25 02:07 37.19158 127.38338 21162 ft 419 kts 342°
2026-04-25 02:07 37.22021 127.37685 20580 ft 419 kts 355°
2026-04-25 02:08 37.24923 127.37889 20010 ft 418 kts
2026-04-25 02:08 37.27691 127.38948 19456 ft 416 kts 22°
2026-04-25 02:08 37.30343 127.40365 18902 ft 413 kts 21°
2026-04-25 02:08 37.33089 127.41329 18364 ft 408 kts
2026-04-25 02:09 37.35899 127.41367 17736 ft 402 kts 351°
2026-04-25 02:09 37.38563 127.40433 17137 ft 396 kts 334°
2026-04-25 02:09 37.40873 127.38591 16532 ft 391 kts 317°
2026-04-25 02:09 37.42654 127.36047 15944 ft 386 kts 302°
2026-04-25 02:10 37.43809 127.33012 15370 ft 382 kts 286°
2026-04-25 02:10 37.44271 127.29744 14805 ft 379 kts 271°
2026-04-25 02:10 37.44111 127.26445 14250 ft 377 kts 263°
2026-04-25 02:10 37.43845 127.23170 13669 ft 375 kts 263°
2026-04-25 02:11 37.43579 127.19909 13122 ft 373 kts 263°
2026-04-25 02:11 37.43319 127.16721 12957 ft 360 kts 263°
2026-04-25 02:11 37.43071 127.13685 12809 ft 347 kts 263°
2026-04-25 02:11 37.42830 127.10696 12575 ft 338 kts 263°
2026-04-25 02:12 37.42595 127.07789 12346 ft 330 kts 263°
2026-04-25 02:12 37.42365 127.04956 12118 ft 321 kts 263°
2026-04-25 02:12 37.42137 127.02176 11893 ft 314 kts 263°
2026-04-25 02:12 37.41915 126.99477 11667 ft 306 kts 263°
2026-04-25 02:13 37.41724 126.96872 11439 ft 300 kts 268°
2026-04-25 02:13 37.41916 126.94259 11217 ft 295 kts 282°
2026-04-25 02:13 37.42572 126.91866 10998 ft 290 kts 295°
2026-04-25 02:13 37.43630 126.89743 10779 ft 284 kts 308°
2026-04-25 02:14 37.44937 126.87915 10563 ft 279 kts 311°
2026-04-25 02:14 37.46251 126.86106 10341 ft 279 kts 311°
2026-04-25 02:14 37.47556 126.84298 10131 ft 278 kts 311°
2026-04-25 02:14 37.48854 126.82496 9892 ft 277 kts 311°
2026-04-25 02:15 37.50147 126.80703 9658 ft 276 kts 311°
2026-04-25 02:15 37.51436 126.78916 9424 ft 275 kts 311°
2026-04-25 02:15 37.52716 126.77138 9140 ft 272 kts 311°
2026-04-25 02:15 37.53974 126.75392 8856 ft 267 kts 311°
2026-04-25 02:16 37.55215 126.73669 8568 ft 263 kts 311°
2026-04-25 02:16 37.56441 126.71970 8298 ft 259 kts 311°
2026-04-25 02:16 37.57642 126.70305 8021 ft 255 kts 311°
2026-04-25 02:16 37.58833 126.68657 7742 ft 252 kts 311°
2026-04-25 02:17 37.59987 126.67055 7479 ft 249 kts 310°
2026-04-25 02:17 37.61142 126.65449 7209 ft 245 kts 310°
2026-04-25 02:17 37.62279 126.63867 6949 ft 243 kts 310°
2026-04-25 02:17 37.63401 126.62305 6707 ft 237 kts 310°
2026-04-25 02:18 37.64499 126.60776 6429 ft 233 kts 310°
2026-04-25 02:18 37.65523 126.59217 6133 ft 227 kts 301°
2026-04-25 02:18 37.66189 126.57451 5856 ft 220 kts 288°
2026-04-25 02:18 37.66721 126.55670 5592 ft 213 kts 289°
2026-04-25 02:19 37.67249 126.53930 5330 ft 209 kts 289°
2026-04-25 02:19 37.67767 126.52220 5057 ft 208 kts 289°
2026-04-25 02:19 37.68281 126.50522 4776 ft 206 kts 289°
2026-04-25 02:19 37.68726 126.48809 4496 ft 204 kts 279°
2026-04-25 02:20 37.68779 126.47037 4263 ft 202 kts 262°
2026-04-25 02:20 37.68548 126.45293 4112 ft 201 kts 259°
2026-04-25 02:20 37.68322 126.43552 3970 ft 201 kts 260°
2026-04-25 02:20 37.68094 126.41810 3814 ft 200 kts 258°
2026-04-25 02:21 37.67613 126.40193 3668 ft 200 kts 241°
2026-04-25 02:21 37.66892 126.38695 3526 ft 199 kts 239°
2026-04-25 02:21 37.66174 126.37199 3379 ft 199 kts 239°
2026-04-25 02:21 37.65462 126.35710 3217 ft 198 kts 239°
2026-04-25 02:22 37.64748 126.34216 3101 ft 199 kts 239°
2026-04-25 02:22 37.64017 126.32735 3006 ft 199 kts 233°
2026-04-25 02:22 37.62892 126.31754 3001 ft 202 kts 198°
2026-04-25 02:22 37.61488 126.31825 2852 ft 208 kts 160°
2026-04-25 02:23 37.60306 126.32806 2612 ft 198 kts 146°
2026-04-25 02:23 37.59214 126.33789 2416 ft 188 kts 147°
2026-04-25 02:23 37.58181 126.34713 2245 ft 174 kts 147°
2026-04-25 02:23 37.57234 126.35558 2186 ft 160 kts 147°
2026-04-25 02:24 37.56373 126.36327 2006 ft 150 kts 146°
2026-04-25 02:24 37.55535 126.37075 1811 ft 146 kts 146°
2026-04-25 02:24 37.54717 126.37804 1627 ft 144 kts 146°
2026-04-25 02:24 37.53905 126.38528 1435 ft 142 kts 146°
2026-04-25 02:25 37.53099 126.39246 1250 ft 141 kts 146°
2026-04-25 02:25 37.52300 126.39959 1056 ft 140 kts 146°
2026-04-25 02:25 37.51508 126.40669 873 ft 139 kts 145°
2026-04-25 02:25 37.50716 126.41362 679 ft 138 kts 146°
2026-04-25 02:26 37.49926 126.42040 498 ft 137 kts 146°
2026-04-25 02:26 37.49150 126.42736 338 ft 137 kts 142°
2026-04-25 02:26 37.48387 126.43449 155 ft 136 kts 143°
2026-04-25 02:26 37.47625 126.44133 35 ft 128 kts 144°
2026-04-25 02:27 37.47094 126.44603 33 ft 51 kts 145°
2026-04-25 02:27 37.46901 126.44772 31 ft 23 kts 145°
2026-04-25 02:27 37.46770 126.44805 32 ft 19 kts 221°
2026-04-25 02:27 37.46716 126.44678 33 ft 15 kts 261°
2026-04-25 02:28 37.46683 126.44562 33 ft 14 kts 233°
2026-04-25 02:28 37.46629 126.44469 33 ft 12 kts 237°
2026-04-25 02:28 37.46649 126.44393 33 ft 8 kts 318°
2026-04-25 02:28 37.46681 126.44359 33 ft 4 kts 309°
2026-04-25 02:29 37.46691 126.44303 33 ft 11 kts 271°
2026-04-25 02:29 37.46673 126.44210 31 ft 4 kts 256°
2026-04-25 02:29 37.46671 126.44201 32 ft 0 kts 256°